Location: Aufkirchen
(47.9603°N, 11.3653°E)
Time: 16:03:15
(UTC+01:00)

Transit 4A - Pass Details

Date: 03 December 2020
Orbit: 864 x 980 km, 66.8° (Epoch: 26 January)

Event Time Altitude Azimuth Distance (km) Brightness Sun altitude
Rises 16:41:13 0° 320° (NW) 3,678 11.2 -3.5°
Reaches altitude 10° 16:43:59 10° 313° (NW) 2,717 10.6 -3.9°
Maximum altitude 16:49:43 37° 248° (WSW) 1,434 9.8 -4.7°
Drops below altitude 10° 16:55:19 10° 183° (S) 2,638 10.7 -5.5°
Sets 16:57:58 0° 175° (S) 3,559 11.3 -5.9°
